Theta_e
324 323 323 322 322 321 321 321 320 320 320 319 319 319 319 319 320 320 320 320 320 320 321 322 323 325 327 315 312 324 351 353 343 340 327 329 328 328 324 324 325 323 325 329 333 333 333
324 325 324 323 322 322 321 321 321 320 320 319 319 319 319 319 319 319 320 320 320 320 320 322 323 325 323 309 317 324 327 341 328 330 327 329 329 331 326 324 323 325 328 330 332 332 333
325 325 325 324 323 323 322 322 321 321 320 320 319 319 319 319 319 319 319 319 318 319 320 322 324 327 319 314 320 325 324 327 328 324 327 330 330 329 328 323 326 328 325 329 330 331 330
325 325 325 325 324 324 323 323 321 322 321 320 320 319 319 319 318 318 317 316 316 319 323 325 325 329 314 320 323 322 323 321 324 326 326 328 329 328 327 327 325 324 325 319 327 328 330
325 325 324 324 324 324 323 323 322 321 321 321 320 320 319 318 318 316 315 315 318 322 327 326 328 322 312 323 319 322 324 320 322 323 323 321 324 325 325 321 319 322 316 316 319 325 326
326 325 325 324 323 323 323 323 322 321 320 321 320 320 319 318 316 314 314 316 319 323 328 329 326 316 316 314 321 321 325 321 319 318 317 319 322 322 322 319 312 315 315 316 315 319 321
325 325 324 324 323 323 322 322 322 321 321 320 320 319 318 317 314 313 317 325 322 321 323 317 315 311 314 322 325 321 322 319 318 317 314 319 317 316 318 320 320 319 317 315 317 320 318
325 325 324 323 322 322 321 322 321 321 320 320 320 318 318 316 314 313 318 321 319 319 314 321 321 320 322 322 315 318 320 314 313 310 314 314 312 319 322 320 319 318 317 316 318 319 318
325 324 323 323 322 321 321 321 320 320 319 319 319 318 317 314 313 316 319 321 323 322 315 315 318 318 318 321 314 314 317 315 312 309 309 310 313 318 319 318 316 318 317 316 314 317 318
324 323 323 322 322 322 320 320 319 319 319 319 318 318 316 312 313 316 320 323 322 321 312 311 313 317 319 320 313 319 319 314 310 308 309 310 314 314 316 315 317 313 321 317 314 313 309
324 324 323 322 322 321 321 320 319 318 318 318 318 317 314 311 316 315 321 321 323 321 301 312 312 323 320 315 316 315 317 313 308 308 310 308 310 312 312 313 318 315 318 316 314 313 312
324 324 323 323 323 322 320 319 319 318 318 318 317 316 313 314 317 318 319 322 321 310 300 309 312 312 313 314 312 315 312 316 314 309 310 310 313 314 314 316 317 319 314 314 314 312 305
324 323 323 322 322 321 320 319 319 318 317 317 315 312 311 318 316 320 321 320 309 305 313 307 308 312 311 310 310 312 311 310 307 303 304 308 309 313 314 312 315 314 311 305 303 303 303
324 323 322 321 320 320 320 320 319 318 317 316 312 309 314 320 323 320 320 314 305 309 309 312 311 311 308 310 310 310 310 308 309 308 305 303 301 309 312 312 309 311 310 304 298 301 305
324 323 322 321 320 320 320 319 318 317 316 314 310 323 324 327 325 322 318 306 312 311 312 309 311 307 307 308 308 309 309 309 310 310 305 303 304 312 312 313 313 310 306 312 306 307 302
324 323 323 321 320 320 320 319 318 318 316 313 315 325 326 323 324 321 314 304 311 314 313 312 306 308 305 307 307 307 308 311 310 312 313 308 304 309 310 311 311 311 314 305 306 298 298
323 323 322 322 321 320 320 319 319 317 313 312 317 322 321 324 321 316 307 310 310 315 315 311 308 307 308 307 309 308 308 310 312 311 313 310 309 306 309 308 309 308 308 309 308 305 300
319 320 322 321 320 320 320 319 318 314 311 313 316 316 323 323 311 314 310 310 304 315 318 315 314 311 310 312 311 310 308 310 312 313 308 311 309 305 307 311 312 313 311 311 304 304 305
319 318 320 321 320 320 320 319 317 313 311 317 317 323 323 321 307 306 311 310 312 314 315 314 313 315 317 315 311 311 310 312 311 312 311 312 307 304 306 310 311 310 311 311 310 310 305
318 319 319 321 320 320 319 318 316 314 311 315 318 316 318 317 316 311 309 311 311 316 315 316 315 317 318 317 319 312 312 314 310 313 321 314 310 309 304 308 313 309 309 310 310 306 307
317 318 318 320 321 320 320 319 317 315 311 315 319 318 316 313 314 313 313 313 311 312 316 317 315 315 315 314 315 313 315 314 313 314 313 313 309 312 313 313 312 312 310 308 309 310 307
317 318 318 317 319 319 320 320 318 315 311 314 314 316 318 317 314 314 306 313 311 314 315 313 313 315 317 317 318 314 316 317 313 314 313 315 312 314 310 313 313 311 311 308 308 310 314
316 317 318 318 318 318 318 320 319 315 311 314 315 318 315 309 315 313 313 313 313 315 318 318 319 316 316 319 322 322 323 320 319 315 314 314 314 312 308 312 311 308 313 316 317 320 317
315 315 317 317 317 318 319 319 320 317 312 321 315 316 313 312 315 315 312 312 313 315 316 319 321 320 321 324 324 324 323 321 320 318 320 316 315 313 310 311 302 314 322 320 317 320 322
314 315 315 316 316 317 318 319 320 318 313 321 320 315 315 311 315 314 312 313 315 316 317 319 320 322 324 323 318 316 316 316 317 318 318 320 316 311 307 307 310 312 318 318 316 314 324
313 315 316 315 316 316 317 318 320 320 314 319 321 318 317 311 311 312 313 314 317 318 317 319 323 327 323 321 316 310 308 312 311 314 320 317 319 314 311 305 302 312 320 325 323 311 325
313 314 315 314 315 316 316 317 319 320 315 317 322 318 317 313 316 313 314 315 317 318 320 320 320 323 323 318 312 310 309 315 309 310 312 314 315 311 310 308 311 319 323 326 310 315 328
313 314 315 315 314 315 316 318 318 319 317 317 322 320 317 316 318 314 315 314 318 318 317 317 319 320 321 315 314 314 312 314 312 314 313 313 312 311 312 309 306 321 323 317 325 331 330
312 313 314 314 314 315 315 316 317 317 318 315 318 321 320 315 318 321 320 320 317 317 316 319 319 319 321 320 319 319 313 315 312 308 318 310 316 314 315 316 324 326 326 329 328 330 333
Wind_Speed
11 10 10 11 10 11 12 13 13 13 14 14 15 15 16 17 17 17 17 18 18 18 19 17 15 15 10 8 6 7 2 6 13 12 11 8 7 4 3 4 3 5 5 2 4 7 7
9 10 10 11 12 12 12 13 13 14 14 15 16 15 16 17 17 18 17 17 18 19 19 17 13 14 8 10 4 4 4 9 14 15 12 9 4 3 5 3 6 6 3 5 6 7 7
7 9 10 10 11 12 13 13 14 14 14 15 16 16 16 17 18 19 19 18 19 19 18 15 10 6 8 9 2 4 2 7 9 14 11 7 5 8 2 2 4 0 4 7 6 4 4
6 7 8 9 10 11 13 14 15 15 15 15 16 17 17 18 19 20 20 20 19 17 16 9 7 7 7 3 3 8 5 8 9 9 7 3 5 7 7 1 3 5 7 5 6 3 4
6 6 7 8 10 11 12 13 14 16 15 16 16 17 18 19 19 20 20 20 18 11 1 8 8 7 3 5 8 4 7 9 12 8 5 4 7 7 6 11 8 7 5 2 6 0 1
9 6 8 8 9 10 11 12 13 14 19 18 17 17 19 19 20 20 22 16 2 6 5 5 4 7 7 5 3 3 6 8 9 12 10 10 9 11 12 10 10 7 6 5 1 4 4
9 11 9 8 9 10 11 12 13 15 17 20 18 19 20 19 21 19 15 5 7 8 8 7 2 4 3 2 5 8 9 10 8 12 14 14 13 16 17 16 4 6 5 5 2 4 7
9 10 10 11 9 11 12 12 14 15 17 18 18 19 20 20 19 17 8 6 6 7 7 10 10 10 8 4 7 11 10 12 11 13 14 10 19 17 18 8 11 10 10 9 1 2 9
9 9 10 10 11 10 11 12 13 15 17 18 18 19 21 20 22 8 5 2 2 4 8 7 6 7 5 9 8 16 15 13 12 15 15 18 16 17 9 13 15 14 14 5 7 7 6
9 9 10 10 11 13 11 12 15 17 17 18 18 18 18 24 8 4 4 3 8 5 8 9 8 6 8 6 8 7 11 10 7 15 15 14 6 9 18 21 17 18 13 6 7 7 8
8 8 9 10 11 12 12 12 14 17 18 18 19 18 17 9 10 5 6 6 2 6 8 7 8 7 7 9 16 9 8 7 9 9 11 12 11 15 18 19 17 16 3 6 6 10 7
8 8 8 9 10 11 12 12 14 17 18 19 19 20 14 5 5 6 6 6 6 9 3 7 7 12 14 9 8 10 12 6 3 6 14 3 2 13 15 15 11 10 8 9 8 10 11
9 9 8 9 10 12 12 13 13 16 18 20 21 18 7 3 2 4 6 6 8 8 4 9 11 15 16 12 9 13 14 14 10 11 12 13 11 10 9 11 8 12 14 11 11 12 12
10 9 9 9 10 12 12 13 14 16 19 22 22 17 8 5 4 6 7 7 7 3 2 4 9 15 12 10 8 10 14 14 8 10 10 13 14 13 13 16 10 15 18 11 11 12 7
10 10 9 9 9 11 12 13 14 16 18 21 26 4 4 3 4 5 8 8 2 2 2 8 13 15 10 10 4 10 14 14 14 13 8 12 7 17 7 10 9 11 9 6 11 4 8
10 10 9 9 9 10 12 13 14 16 19 21 7 4 2 2 6 7 8 5 1 2 2 8 10 9 13 14 10 10 12 12 11 13 11 5 9 11 9 7 5 8 7 10 9 5 7
10 10 9 10 9 9 11 12 13 15 20 19 6 5 6 4 5 7 9 1 2 1 4 6 5 8 10 11 11 11 10 6 15 14 9 4 7 8 9 12 14 8 10 8 7 6 7
9 10 9 10 10 9 10 11 11 12 21 8 5 5 5 4 7 2 7 1 2 4 4 5 5 6 9 7 7 7 5 1 6 14 13 8 5 12 9 5 6 9 15 14 7 11 2
10 10 11 11 10 8 10 9 9 8 11 8 5 2 5 5 6 8 4 5 4 4 3 4 6 2 1 2 4 4 4 4 10 14 10 10 7 10 10 8 6 10 8 8 7 3 6
10 9 10 12 10 9 9 9 7 6 7 5 5 5 5 6 3 7 5 7 5 5 6 3 0 3 6 4 3 7 8 5 8 8 5 6 3 9 6 9 4 6 6 9 12 8 8
12 11 10 11 8 7 9 10 7 5 4 5 4 1 6 6 8 6 5 2 6 5 5 4 6 3 4 3 4 5 5 11 7 6 7 10 8 3 6 6 1 3 4 8 12 3 6
12 11 9 8 7 7 9 9 5 4 4 5 5 4 3 4 4 7 7 7 4 3 4 9 5 5 2 4 6 7 6 3 4 9 11 8 5 5 5 3 3 4 3 7 6 4 3
12 10 10 9 9 8 9 9 4 2 5 4 1 2 5 6 7 7 5 3 4 2 3 2 3 6 7 7 6 5 3 5 3 9 10 10 8 8 7 2 5 9 7 3 5 2 3
12 12 11 9 10 9 9 8 6 3 3 5 3 5 5 4 6 5 3 1 3 2 2 1 1 4 5 5 4 4 3 5 6 4 3 7 8 4 5 6 9 10 5 1 4 2 3
12 12 11 11 11 11 10 8 7 6 5 6 2 5 4 5 3 5 5 2 3 4 6 1 5 4 2 5 6 7 7 6 6 4 2 5 6 4 5 11 2 6 6 6 8 8 7
12 12 10 10 10 10 10 8 6 6 8 6 4 3 5 6 4 4 3 1 1 5 8 5 2 1 5 4 4 6 6 2 6 7 1 4 6 7 7 10 6 2 10 4 3 10 12
13 12 10 10 10 10 10 10 8 6 10 5 2 5 5 5 3 3 1 4 2 3 0 4 2 3 5 4 5 4 4 3 5 5 5 9 7 10 9 10 6 9 6 6 11 1 6
12 11 11 9 8 9 10 11 8 6 12 7 1 4 5 4 1 2 2 3 1 2 2 5 5 4 3 4 3 4 4 3 4 2 4 6 7 7 10 7 12 4 7 11 5 2 4
11 9 11 10 8 9 9 8 7 5 12 10 4 3 4 6 7 4 5 6 4 5 6 5 5 4 5 1 1 1 4 3 4 6 4 7 4 7 4 5 4 2 5 3 5 4 5
Wind_Direction
11 10 5 2 355 349 347 345 344 342 340 336 333 331 328 324 322 321 318 315 314 313 312 314 320 319 293 231 253 66 269 181 179 203 220 223 250 281 344 359 306 278 32 46 120 146 131
4 3 2 359 356 349 345 343 342 341 338 336 332 329 325 321 319 319 317 313 311 310 307 307 311 308 256 248 72 85 33 164 190 200 205 220 258 329 294 323 323 340 306 112 144 126 145
357 3 356 354 353 350 345 342 339 337 335 333 330 326 321 317 319 319 317 313 311 306 299 294 290 273 253 263 358 210 311 189 190 205 208 207 247 245 1 235 354 154 189 143 133 169 137
344 345 345 343 348 342 340 342 343 334 330 328 327 325 321 319 320 320 317 312 307 299 290 266 231 240 265 116 297 247 214 174 190 206 263 216 231 265 254 80 214 225 247 191 120 204 113
318 329 335 334 338 335 333 332 337 335 329 326 324 322 320 319 320 322 317 310 298 287 327 160 204 253 242 143 217 193 208 177 167 186 181 183 222 244 190 237 199 211 199 220 141 47 299
321 322 321 329 334 331 328 328 331 334 336 332 328 323 321 322 326 325 317 299 112 204 201 220 265 239 219 155 134 163 171 193 170 160 166 203 211 219 224 230 232 173 191 189 193 81 280
322 328 320 332 328 325 323 324 327 329 332 334 330 328 323 324 327 326 312 193 204 180 210 269 58 308 132 10 176 195 174 179 179 192 201 201 217 218 219 225 331 263 247 220 136 70 302
317 322 322 318 328 321 322 321 323 324 328 330 329 327 324 324 321 316 270 261 40 353 281 220 251 265 263 299 190 168 194 191 199 203 211 185 227 222 234 205 226 221 231 216 267 191 300
314 316 318 323 321 323 322 320 323 326 328 328 328 327 327 325 318 274 285 41 23 304 255 154 198 233 208 204 205 167 196 202 208 214 204 225 219 227 224 209 227 228 238 230 300 330 226
311 315 317 318 317 318 324 321 325 327 326 326 326 325 330 328 289 350 210 120 304 247 257 130 182 164 176 227 173 136 202 193 209 217 211 232 208 213 219 229 224 241 207 256 272 296 296
297 305 311 317 319 318 315 320 324 323 324 324 324 323 326 330 321 241 51 318 287 224 221 135 138 117 152 216 128 161 170 193 195 192 205 195 207 208 221 227 217 248 163 261 277 278 278
288 296 306 312 314 313 314 316 319 323 322 322 320 320 324 192 218 284 301 300 227 229 141 142 133 174 175 189 166 133 184 225 355 172 218 259 261 226 225 226 214 233 210 226 255 273 269
274 285 296 308 311 312 313 311 315 318 321 321 316 315 278 270 32 334 287 218 225 264 141 149 166 170 184 168 150 176 184 190 190 192 194 204 198 200 249 197 205 219 229 240 229 231 249
270 273 285 299 308 311 312 313 313 316 322 320 316 316 171 265 297 301 226 226 251 81 160 117 160 177 188 170 192 179 190 199 211 246 188 194 193 199 183 225 195 213 224 231 226 242 254
264 269 280 291 303 309 312 314 316 314 319 322 308 195 216 163 225 236 239 224 351 115 83 162 158 170 179 184 233 191 200 209 194 219 233 199 214 175 197 203 253 158 230 284 290 239 270
276 263 267 279 294 306 312 316 318 321 319 328 308 261 74 10 187 234 239 279 212 339 279 224 174 202 168 178 197 208 180 203 203 203 258 184 183 192 153 181 196 276 174 203 223 275 268
298 280 266 270 283 298 308 317 321 328 324 329 247 238 94 144 237 223 233 288 282 283 241 224 192 174 175 169 215 195 173 139 209 177 211 215 257 139 165 208 185 182 216 239 319 313 300
297 297 279 267 275 290 303 314 325 337 331 298 289 227 125 239 218 232 233 238 22 261 196 231 273 171 182 184 202 224 208 245 190 168 192 213 299 163 161 101 294 230 235 218 227 175 250
280 298 303 264 263 275 292 307 323 347 3 315 295 322 156 264 236 204 191 240 262 253 194 202 179 248 160 149 192 227 183 74 171 186 178 180 245 138 151 154 157 214 199 247 250 312 163
285 280 294 263 249 257 283 297 314 343 349 291 272 212 161 218 284 280 223 218 222 201 260 254 114 191 173 163 187 151 149 109 174 193 354 221 252 310 130 68 95 176 194 223 231 227 155
277 279 280 292 237 260 270 277 298 341 336 277 228 91 355 187 203 222 231 292 218 190 214 229 173 223 203 148 150 128 138 137 163 149 199 245 132 127 74 79 141 292 212 194 228 329 275
281 267 267 284 282 273 287 268 276 334 311 258 297 307 192 280 199 221 157 191 228 162 257 165 236 155 195 93 16 112 143 216 144 177 203 229 119 167 97 139 210 171 153 183 204 240 206
277 268 258 244 258 268 279 286 236 307 308 286 66 240 277 143 196 218 176 155 164 277 154 290 301 194 136 74 33 44 5 90 105 173 172 197 153 214 128 173 217 207 157 146 123 190 322
272 268 267 257 254 258 264 279 233 182 290 308 343 287 259 201 230 205 180 254 228 252 317 74 250 256 56 290 230 220 179 114 104 110 253 186 196 200 105 184 230 76 77 306 273 186 201
278 264 258 254 247 245 251 261 244 196 223 275 313 274 277 261 280 196 211 272 248 165 205 167 74 11 307 222 209 175 177 181 131 66 92 244 199 156 209 219 89 174 181 201 225 212 190
272 266 248 253 249 245 246 252 246 213 203 260 264 270 280 296 161 10 252 344 219 167 158 121 108 341 238 241 201 222 192 66 174 163 228 186 250 247 189 275 242 287 130 184 216 248 173
262 264 241 241 244 242 241 239 233 239 194 243 276 236 270 273 91 286 300 356 310 253 93 130 39 169 242 199 203 205 164 359 231 231 181 198 231 231 204 242 249 95 146 181 221 60 169
254 257 229 230 235 238 243 229 233 264 192 221 72 203 285 292 339 258 325 328 257 306 292 51 203 173 179 205 255 132 261 134 263 330 267 253 238 214 243 260 239 128 147 228 14 52 138
246 256 223 220 229 221 229 231 231 258 192 211 235 167 224 266 1 321 296 300 316 1 334 32 30 57 34 265 211 154 199 194 306 232 181 244 292 323 319 32 60 296 22 21 320 137 146